Stations météo

réclame
Mon MeteoGroup
Svenska Hogarna A, Suède (2498): Température de l'air & dewpoint: 13.07.2018 15:00:00 - 19.07.2018 15:00:00 (CEST)Svenska Hogarna A, Suède (2498): Vitesse du vent & gusts: 13.07.2018 15:00:00 - 19.07.2018 15:00:00 (CEST)Svenska Hogarna A, Suède (2498): Direction du vent: 13.07.2018 15:00:00 - 19.07.2018 15:00:00 (CEST)Svenska Hogarna A, Suède (2498): reduced air pressure: 13.07.2018 15:00:00 - 19.07.2018 15:00:00 (CEST)Svenska Hogarna A, Suède (2498): visibility: 13.07.2018 15:00:00 - 19.07.2018 15:00:00 (CEST)Svenska Hogarna A, Suède (2498): Quantités de précipitations: 13.07.2018 15:00:00 - 19.07.2018 15:00:00 (CEST)
Date & Time tt [°C] td [°C] ff [km/h] ff [knt] fx [km/h] fx [knt] dd ppp [hPa] vv [km] rr [mm]
19.07.2018 15:00:00 24,7 15,7 7 4 16 8 ENE 1013,2 38 0,0
19.07.2018 14:00:00 23,9 17,4 10 5 16 9 NNE 1013,3 40 0,0
19.07.2018 13:00:00 23,9 16,4 10 5 16 9 NE 1013,5 41 0,0
19.07.2018 12:00:00 24,0 17,0 13 7 21 11 NE 1013,5 32 0,0
19.07.2018 11:00:00 23,8 17,8 16 8 26 14 ENE 1013,2 31 0,0
19.07.2018 10:00:00 23,6 17,8 21 11 27 14 E 1013,0 35 0,0
19.07.2018 09:00:00 23,4 18,3 21 11 29 15 ENE 1012,9 28 0,0
19.07.2018 08:00:00 22,6 17,9 22 12 29 15 ENE 1012,8 42 0,0
19.07.2018 07:00:00 22,5 17,6 21 11 27 14 ENE 1012,8 36 0,0
19.07.2018 06:00:00 22,2 17,8 19 10 29 16 ENE 1012,8 34 0,0
19.07.2018 05:00:00 21,8 18,0 22 12 29 16 ENE 1012,5 38 0,0
19.07.2018 04:00:00 21,5 18,1 18 10 24 13 NE 1012,7 37 0,0
19.07.2018 03:00:00 22,0 16,9 18 10 25 14 NE 1012,8 40 0,0
19.07.2018 02:00:00 21,7 17,3 18 10 25 14 NNE 1013,0 35 0,0
19.07.2018 01:00:00 21,7 18,3 18 10 22 12 NE 1013,1 36 0,0
19.07.2018 00:00:00 21,7 18,3 18 10 21 12 NE 1013,2 34 0,0
18.07.2018 23:00:00 21,9 17,9 14 7 19 11 NNE 1013,3 36 0,0
18.07.2018 22:00:00 22,2 17,5 15 8 20 11 NNE 1013,3 40 0,0
18.07.2018 21:00:00 22,0 18,6 10 5 18 10 N 1013,4 38 0,0
18.07.2018 20:00:00 22,9 18,0 16 9 22 12 NE 1013,0 33 0,0
18.07.2018 19:00:00 23,0 18,3 17 9 22 12 NE 1013,1 42 0,0
18.07.2018 18:00:00 23,6 17,8 14 8 20 11 NNE 1013,3 38 0,0
18.07.2018 17:00:00 24,4 16,9 13 7 23 12 NE 1013,3 44 0,0
18.07.2018 16:00:00 24,1 17,3 16 9 22 12 ENE 1013,4 35 0,0
18.07.2018 15:00:00 23,7 17,7 14 8 24 13 ENE 1013,6 32 0,0
18.07.2018 14:00:00 24,2 18,8 21 11 31 17 ENE 1013,7 27 0,0
18.07.2018 13:00:00 23,4 18,7 23 12 30 16 ENE 1013,8 28 0,0
18.07.2018 12:00:00 23,3 18,8 21 12 28 15 ENE 1013,8 25 0,0
18.07.2018 11:00:00 23,5 18,8 19 10 29 16 E 1013,9 32 0,0
18.07.2018 10:00:00 23,6 18,9 23 12 29 15 E 1013,9 37 0,0
18.07.2018 09:00:00 23,0 18,5 24 13 31 17 E 1013,9 34 0,0
18.07.2018 08:00:00 22,9 18,4 26 14 32 17 ENE 1013,8 34 0,0
18.07.2018 07:00:00 22,9 18,0 23 13 33 18 ENE 1013,6 34 0,0
18.07.2018 06:00:00 22,6 17,9 25 14 34 18 ENE 1013,3 32 0,0
18.07.2018 05:00:00 22,7 17,2 24 13 36 19 NE 1013,1 36 0,0
18.07.2018 04:00:00 22,5 17,4 25 13 31 17 NE 1013,3 45 0,0
18.07.2018 03:00:00 22,8 17,3 21 12 29 16 NE 1013,6 47 0,0
18.07.2018 02:00:00 23,0 17,2 22 12 34 19 NE 1013,6 46 0,0
18.07.2018 01:00:00 23,5 17,0 26 14 33 18 NE 1013,8 38 0,0
18.07.2018 00:00:00 22,8 17,9 20 11 27 15 NNE 1013,8 46 0,0
17.07.2018 23:00:00 23,1 17,8 21 11 27 15 NNE 1014,2 38 0,0
17.07.2018 22:00:00 23,1 17,8 21 12 30 16 NE 1014,2 39 0,0
17.07.2018 21:00:00 23,9 17,2 23 12 31 17 NNE 1014,1 38 0,0
17.07.2018 20:00:00 24,1 17,6 19 10 27 15 NNE 1014,0 42 0,0
17.07.2018 19:00:00 24,4 17,6 16 8 23 12 NNE 1014,0 37 0,0
17.07.2018 18:00:00 24,8 17,0 15 8 22 12 NNE 1014,1 31 0,0
17.07.2018 17:00:00 24,4 18,3 14 8 22 12 NNE 1014,4 32 0,0
17.07.2018 16:00:00 23,9 19,2 16 9 24 13 NE 1014,8 23 0,0
17.07.2018 15:00:00 23,7 18,6 18 10 25 14 NE 1015,1 30 0,0
17.07.2018 14:00:00 23,7 18,1 17 9 22 12 NE 1015,1 30 0,0
17.07.2018 13:00:00 24,6 18,3 14 8 24 13 NE 1015,3 32 0,0
17.07.2018 12:00:00 24,6 18,1 16 9 23 12 NE 1015,4 37 0,0
17.07.2018 11:00:00 23,5 17,9 16 9 23 12 NE 1015,3 27 0,0
17.07.2018 10:00:00 24,2 17,4 17 9 27 14 ENE 1015,1 38 0,0
17.07.2018 09:00:00 23,8 17,5 18 10 27 15 ENE 1015,2 39 0,0
17.07.2018 08:00:00 23,3 17,3 15 8 24 13 ENE 1015,3 38 0,0
17.07.2018 07:00:00 23,2 17,2 18 10 23 13 ENE 1015,1 50 0,0
17.07.2018 06:00:00 22,2 17,8 16 9 24 13 ENE 1015,2 46 0,0
17.07.2018 05:00:00 21,3 18,1 14 8 21 11 NE 1015,2 46 0,0
17.07.2018 04:00:00 20,9 17,9 14 8 20 11 NNE 1015,0 46 0,0
17.07.2018 03:00:00 21,0 17,8 14 8 22 12 N 1015,0 50 0,0
17.07.2018 02:00:00 21,4 17,4 13 7 20 11 NNE 1015,1 48 0,0
17.07.2018 01:00:00 21,5 17,7 13 7 21 11 N 1015,3 47 0,0
17.07.2018 00:00:00 22,2 16,5 17 9 29 16 NNE 1015,4 50 0,0
16.07.2018 23:00:00 22,5 16,0 23 12 28 15 NE 1015,5 50 0,0
16.07.2018 22:00:00 22,9 17,1 19 10 24 13 NE 1015,6 43 0,0
16.07.2018 21:00:00 23,6 16,9 17 9 22 12 NE 1015,4 36 0,0
16.07.2018 20:00:00 23,8 18,4 13 7 21 12 NNE 1015,1 48 0,0
16.07.2018 19:00:00 24,6 17,1 11 6 19 10 N 1014,9 46 0,0
16.07.2018 18:00:00 25,1 15,1 11 6 19 11 NNE 1015,1 44 0,0
16.07.2018 17:00:00 25,4 14,8 12 7 22 12 N 1015,3 41 0,0
16.07.2018 16:00:00 24,9 15,0 14 7 22 12 N 1015,4 41 0,0
16.07.2018 15:00:00 24,5 18,9 13 7 19 10 N 1015,9 42 0,0
16.07.2018 14:00:00 24,2 17,0 12 7 17 9 NNE 1016,0 38 0,0
16.07.2018 13:00:00 24,1 17,6 12 6 19 10 NNE 1016,0 37 0,0
16.07.2018 12:00:00 24,1 16,6 13 7 20 11 NE 1016,1 40 0,0
16.07.2018 11:00:00 23,4 16,2 14 8 22 12 NE 1016,0 46 0,0
16.07.2018 10:00:00 23,2 16,0 13 7 19 10 NNE 1016,0 39 0,0
16.07.2018 09:00:00 24,1 14,2 10 6 16 9 NE 1015,9 43 0,0
16.07.2018 08:00:00 23,8 13,6 9 5 14 8 ENE 1015,9 48 0,0
16.07.2018 07:00:00 23,2 14,7 9 5 13 7 E 1015,9 42 0,0
16.07.2018 06:00:00 21,5 16,9 10 5 14 7 E 1015,8 50 0,0
16.07.2018 05:00:00 20,6 18,0 9 5 11 6 E 1015,7 47 0,0
16.07.2018 04:00:00 20,3 17,7 9 5 10 6 ENE 1015,6 47 0,0
16.07.2018 03:00:00 21,1 16,7 4 2 8 4 WNW 1015,4 47 0,0
16.07.2018 02:00:00 20,9 17,1 8 4 11 6 WSW 1015,4 44 0,0
16.07.2018 01:00:00 21,1 16,1 10 5 11 6 SW 1015,3 50 0,0
16.07.2018 00:00:00 21,4 15,9 10 5 11 6 SW 1015,1 50 0,0
15.07.2018 23:00:00 21,5 16,9 8 5 11 6 SSW 1015,0 50 0,0
15.07.2018 22:00:00 21,7 15,8 9 5 13 7 SSW 1014,9 50 0,0
15.07.2018 21:00:00 22,1 15,4 9 5 14 7 SSW 1014,6 50 0,0
15.07.2018 20:00:00 23,1 15,4 10 5 15 8 SW 1014,5 50 0,0
15.07.2018 19:00:00 23,5 17,3 10 5 16 9 SW 1014,3 50 0,0
15.07.2018 18:00:00 24,0 15,0 11 6 16 9 SW 1014,2 39 0,0
15.07.2018 17:00:00 24,4 16,1 11 6 16 8 SW 1014,4 47 0,0
15.07.2018 16:00:00 23,2 15,5 11 6 14 8 S 1014,4 37 0,0
15.07.2018 15:00:00 23,0 15,1 10 5 15 8 S 1014,7 44 0,0
15.07.2018 14:00:00 22,9 16,0 10 5 13 7 S 1014,7 44 0,0
15.07.2018 13:00:00 23,2 15,8 9 5 14 7 S 1014,7 43 0,0
15.07.2018 12:00:00 22,9 14,2 8 4 13 7 S 1014,7 41 0,0
15.07.2018 11:00:00 22,3 15,4 10 5 14 8 S 1014,5 39 0,0
15.07.2018 10:00:00 21,8 15,2 12 6 16 9 SSE 1014,3 42 0,0
15.07.2018 09:00:00 22,3 13,6 10 5 14 8 SE 1014,0 47 0,0
15.07.2018 08:00:00 21,7 12,8 8 4 11 6 E 1013,6 50 0,0
15.07.2018 07:00:00 22,3 15,6 3 2 8 4 ESE 1013,5 49 0,0
15.07.2018 06:00:00 20,4 15,4 3 2 6 3 ESE 1013,5 49 0,0
15.07.2018 05:00:00 19,1 15,4 4 2 6 3 SSE 1013,3 48 0,0
15.07.2018 04:00:00 19,3 14,8 3 2 8 4 W 1013,3 30 0,0
15.07.2018 03:00:00 19,8 13,5 7 4 11 6 WNW 1013,2 50 0,0
15.07.2018 02:00:00 19,0 16,2 10 6 12 6 WNW 1013,1 50 0,0
15.07.2018 01:00:00 19,0 15,9 10 6 12 7 W 1013,2 50 0,0
15.07.2018 00:00:00 19,2 16,1 9 5 13 7 WSW 1013,2 43 0,0
14.07.2018 23:00:00 19,6 15,0 10 5 11 6 WSW 1013,1 50 0,0
14.07.2018 22:00:00 19,6 15,0 11 6 17 9 W 1013,0 50 0,0
14.07.2018 21:00:00 20,6 16,6 11 6 16 8 WSW 1012,9 50 0,0
14.07.2018 20:00:00 21,6 15,0 8 4 11 6 SW 1012,9 42 0,0
14.07.2018 19:00:00 22,5 12,2 7 4 10 5 SW 1012,8 46 0,0
14.07.2018 18:00:00 23,0 9,0 4 2 12 6 E 1012,8 46 0,0
14.07.2018 17:00:00 23,4 10,5 5 3 12 7 NE 1012,9 41 0,0
14.07.2018 16:00:00 22,7 11,4 9 5 13 7 N 1013,1 39 0,0
14.07.2018 15:00:00 22,1 12,4 9 5 14 8 NE 1013,3 48 0,0
14.07.2018 14:00:00 22,6 11,3 9 5 15 8 N 1013,5 38 0,0
14.07.2018 13:00:00 22,5 13,0 9 5 16 8 N 1013,9 33 0,0
14.07.2018 12:00:00 20,8 11,7 10 5 16 9 N 1014,1 35 0,0
14.07.2018 11:00:00 20,3 13,0 9 5 17 9 N 1014,1 39 0,0
14.07.2018 10:00:00 20,2 14,3 11 6 21 11 N 1014,1 42 0,0
14.07.2018 09:00:00 20,1 14,9 13 7 19 10 N 1013,9 45 0,0
14.07.2018 08:00:00 19,3 14,3 10 5 17 9 NNW 1013,9 50 0,0
14.07.2018 07:00:00 18,7 14,2 10 6 16 9 NNE 1013,8 48 0,0
14.07.2018 06:00:00 18,1 14,2 9 5 14 8 N 1013,8 48 0,0
14.07.2018 05:00:00 17,6 14,9 10 6 16 9 NNW 1013,6 44 0,0
14.07.2018 04:00:00 17,6 13,9 9 5 14 8 N 1013,8 49 0,0
14.07.2018 03:00:00 17,2 15,0 8 5 14 7 NNE 1013,8 50 0,0
14.07.2018 02:00:00 17,3 15,5 9 5 16 9 NNW 1013,7 46 0,0
14.07.2018 01:00:00 17,2 14,8 10 5 13 7 NW 1013,9 49 0,0
14.07.2018 00:00:00 18,0 14,1 8 5 11 6 N 1014,2 47 0,0
13.07.2018 23:00:00 18,0 14,3 9 5 12 6 N 1014,3 50 0,0
13.07.2018 22:00:00 18,4 14,3 9 5 11 6 NNW 1014,0 50 0,0
13.07.2018 21:00:00 18,9 14,4 7 4 16 9 N 1014,0 44 0,0
13.07.2018 20:00:00 19,8 14,2 8 5 17 9 N 1013,7 50 0,0
13.07.2018 19:00:00 19,5 15,2 11 6 16 9 N 1013,7 44 0,0
13.07.2018 18:00:00 19,9 15,1 10 5 21 12 N 1013,9 27 0,0
13.07.2018 17:00:00 20,2 14,6 14 7 20 11 NNE 1014,1 47 0,0
13.07.2018 16:00:00 19,4 14,9 14 7 20 11 N 1014,1 38 0,0
13.07.2018 15:00:00 19,8 14,6 13 7 21 11 N 1014,7 39 0,0

tt = Température de l'air
td = dewpoint
ff = Vitesse du vent
fx = gusts
dd = Direction du vent
ppp = reduced air pressure
vv = visibility
rr = Quantités de précipitations

stations d'obs. à proximité